Tue, 04 Oct 2022 17:30:11 UTC

Information for RPM ethtool-6-2.20090115git.fc9.i386.rpm

ID952399
Nameethtool
Version6
Release2.20090115git.fc9
Epoch
Archi386
SummaryEthernet settings tool for PCI ethernet cards
DescriptionThis utility allows querying and changing settings such as speed, port, autonegotiation, PCI locations and checksum offload on many network devices, especially of ethernet devices.
Build Time2009-01-17 13:30:34 GMT
Size82.10 KB
6b6c8400684588ff3a53b4f190f45750
LicenseGPLv2
Buildrootdist-f9-build-329650-60313
Provides
ethtool = 6-2.20090115git.fc9
Obsoletes No Obsoletes
Conflicts No Conflicts
Requires
libc.so.6
libc.so.6(GLIBC_2.0)
libc.so.6(GLIBC_2.1)
libc.so.6(GLIBC_2.3.4)
libc.so.6(GLIBC_2.4)
rpmlib(CompressedFileNames) <= 3.0.4-1
rpmlib(PayloadFilesHavePrefix) <= 4.0-1
rtld(GNU_HASH)
Recommends No Recommends
Suggests No Suggests
Supplements No Supplements
Enhances No Enhances
Files
1 through 11 of 11
Name ascending sort Size
/sbin/ethtool166.94 KB
/usr/sbin/ethtool18.00 B
/usr/share/doc/ethtool-64.00 KB
/usr/share/doc/ethtool-6/AUTHORS267.00 B
/usr/share/doc/ethtool-6/COPYING17.57 KB
/usr/share/doc/ethtool-6/ChangeLog.git22.98 KB
/usr/share/doc/ethtool-6/ChangeLog.old11.12 KB
/usr/share/doc/ethtool-6/LICENSE100.00 B
/usr/share/doc/ethtool-6/NEWS3.85 KB
/usr/share/doc/ethtool-6/README127.00 B
/usr/share/man/man8/ethtool.8.gz3.50 KB
Component of
Page:
1 through 50 of 818 >>>
Buildroot descending sort Created State
dist-f9-build-502410-77934 2009-07-14 22:53:53 expired
dist-f9-build-498074-77934 2009-07-09 20:59:17 expired
dist-f9-build-496871-77934 2009-07-08 07:13:08 expired
dist-f9-build-496170-77787 2009-07-07 13:50:33 expired
dist-f9-build-496062-77787 2009-07-07 10:42:55 expired
dist-f9-build-494941-77787 2009-07-06 06:49:12 expired
dist-f9-build-494422-77588 2009-07-05 10:58:07 expired
dist-f9-build-494187-77588 2009-07-04 16:57:28 expired
dist-f9-build-494048-77588 2009-07-04 10:10:54 expired
dist-f9-build-492464-77356 2009-07-02 13:54:29 expired
dist-f9-build-491913-77310 2009-07-01 22:19:38 expired
dist-f9-build-490672-77156 2009-06-30 23:06:02 expired
dist-f9-build-489450-77094 2009-06-29 19:38:55 expired
dist-f9-build-488589-77019 2009-06-29 00:43:19 expired
dist-f9-build-488525-77019 2009-06-28 22:50:57 expired
dist-f9-build-488004-76911 2009-06-27 17:33:36 expired
dist-f9-build-487913-76903 2009-06-27 15:25:03 expired
dist-f9-build-486567-76596 2009-06-25 04:25:45 expired
dist-f9-build-486245-76492 2009-06-24 17:50:44 expired
dist-f9-build-486169-76492 2009-06-24 15:50:28 expired
dist-f9-build-486162-76492 2009-06-24 15:35:39 expired
dist-f9-build-486149-76492 2009-06-24 15:20:38 expired
dist-f9-build-486097-76492 2009-06-24 14:20:35 expired
dist-f9-build-486056-76492 2009-06-24 13:35:32 expired
dist-f9-build-486041-76492 2009-06-24 13:05:52 expired
dist-f9-build-486036-76492 2009-06-24 12:50:55 expired
dist-f9-build-485964-76492 2009-06-24 11:50:53 expired
dist-f9-build-484891-76331 2009-06-22 21:17:43 expired
dist-f9-build-484599-76331 2009-06-22 16:00:09 expired
dist-f9-build-483494-76224 2009-06-21 03:51:34 expired
dist-f9-build-482441-76099 2009-06-19 13:37:27 expired
dist-f9-build-481754-76041 2009-06-18 15:45:02 expired
dist-f9-build-479572-75923 2009-06-16 12:03:15 expired
dist-f9-build-479516-75923 2009-06-16 11:07:13 expired
dist-f9-build-479391-75923 2009-06-16 09:45:45 expired
dist-f9-build-479263-75907 2009-06-16 05:36:13 expired
dist-f9-build-479059-75897 2009-06-16 03:35:52 expired
dist-f9-build-478994-75897 2009-06-16 03:28:56 expired
dist-f9-build-478956-75897 2009-06-16 03:23:44 expired
dist-f9-build-478940-75897 2009-06-16 03:20:51 expired
dist-f9-build-478930-75897 2009-06-16 03:20:11 expired
dist-f9-build-478868-75897 2009-06-16 03:11:26 expired
dist-f9-build-478850-75897 2009-06-16 03:09:53 expired
dist-f9-build-478839-75897 2009-06-16 03:08:52 expired
dist-f9-build-478794-75897 2009-06-16 03:02:00 expired
dist-f9-build-478784-75897 2009-06-16 03:01:29 expired
dist-f9-build-478752-75897 2009-06-16 02:56:24 expired
dist-f9-build-478742-75897 2009-06-16 02:55:04 expired
dist-f9-build-478732-75897 2009-06-16 02:52:28 expired
dist-f9-build-478691-75897 2009-06-16 02:46:39 expired